{"data":{"norad_id":44351,"intl_designator":"2019-036N","name":"FORMOSAT 7-2","alt_names":[],"object_type":"PAYLOAD","status":"ACTIVE","operator":null,"country":"ROC","launch_date":"2019-06-25","launch_site_code":"AFETR","launch_vehicle":null,"mission":null,"orbit_class":"UNKNOWN","rcs_meters":null,"size_class":null,"mass_kg":null,"dimensions":null,"purposes":[],"wikipedia_slug":null,"has_3d_model":false,"image_url":null,"decayed_at":null,"tle_current":{"epoch":"2026-09-20T00:43:03.662400Z","epoch_age_seconds":102373,"freshness":"FRESH","line1":"1 44351U 19036N   26263.02990350  .00001818  00000+0  12899-3 0  9992","line2":"2 44351  23.9975 229.2481 0000612 186.3261 173.7232 14.96831105397819","mean_motion":14.96831105,"eccentricity":6.12e-5,"inclination_deg":23.9975,"raan_deg":229.2481,"arg_perigee_deg":186.3261,"mean_anomaly_deg":173.7232,"bstar":0.00012899,"rev_number":39781,"period_min":96.203238641276,"perigee_km":576.26933194127,"apogee_km":577.12060337411,"semimajor_km":6954.8319676577,"source":"CELESTRAK","updated_at":"2026-09-20T09:00:14.525541Z"}}}